Wind_Speed
10 14 18 19 19 19 19 19 18 17 16 15 13 11 10 8 6 4 3 3 3 3 3 4 5 5 6 7 7 8 9 10 11 12 13 13 14 15 15 16 17 17 19
7 12 16 17 18 19 18 16 17 16 15 14 12 11 9 7 6 4 3 2 2 2 3 3 5 5 6 7 8 9 10 11 12 13 13 14 14 15 16 17 18 19 20
5 10 13 15 17 18 17 16 16 15 14 13 12 10 9 8 6 5 4 3 2 2 3 4 5 6 8 8 9 10 10 11 12 13 14 15 15 16 17 18 19 20 21
5 9 11 13 14 16 16 16 16 15 13 13 11 10 9 8 6 5 4 3 2 2 3 4 5 7 8 9 10 10 11 12 13 13 14 15 16 16 17 18 19 20 21
2 5 8 11 13 15 16 16 16 14 13 12 11 10 9 8 7 5 4 4 3 3 3 4 6 8 9 10 10 11 12 13 13 14 15 16 17 18 19 20 20 21 22
1 2 5 9 12 14 15 16 15 14 13 12 11 10 9 8 7 6 5 4 4 4 4 5 7 9 9 10 11 12 13 14 15 16 16 17 17 18 19 20 21 22 23
1 3 5 8 11 13 14 15 14 13 13 12 11 10 9 8 7 6 5 5 5 5 6 7 8 9 9 11 12 13 14 15 16 17 18 18 18 19 20 21 22 23 24
2 3 5 7 9 11 13 14 13 12 12 11 10 10 10 9 8 7 7 7 7 7 8 9 9 10 11 13 14 15 15 16 17 18 19 19 20 20 21 22 23 24 25
3 4 4 6 8 10 11 12 12 12 11 11 11 10 10 10 9 9 9 9 9 9 10 11 11 13 14 15 16 16 17 18 19 20 20 21 21 22 22 23 23 24 25
4 5 5 5 7 9 10 11 11 11 11 12 12 11 11 11 11 11 11 12 12 12 12 13 14 15 16 17 18 19 19 20 21 21 22 22 23 23 24 24 25 25 26
4 5 5 6 7 8 9 10 11 12 12 12 12 12 12 12 12 13 13 14 15 15 16 16 17 18 19 19 20 20 21 22 23 23 23 24 25 25 25 25 25 26 27
6 6 6 7 8 9 10 11 12 13 13 13 14 14 14 14 15 15 16 17 18 18 19 19 20 20 21 22 22 22 23 23 24 25 25 25 26 26 26 27 27 27 28
8 8 8 8 9 10 12 13 13 14 14 15 16 16 16 17 18 18 19 20 20 21 21 22 22 23 23 24 24 24 25 26 26 26 27 27 27 28 28 29 29 29 29
10 10 11 11 11 12 13 14 15 15 16 17 18 19 20 20 21 22 22 22 23 23 24 24 25 25 26 26 26 27 27 27 28 28 28 29 29 29 30 30 31 31 31
13 13 14 14 14 14 15 16 16 17 18 20 20 21 22 23 24 24 25 25 25 25 26 26 27 27 28 28 28 28 29 29 29 29 30 30 31 31 32 32 32 33 33
15 15 16 16 17 17 18 19 20 20 21 22 23 23 24 25 26 26 26 26 26 27 27 28 29 29 29 30 30 30 31 31 31 31 31 32 32 33 33 34 34 34 34
17 18 18 19 20 20 21 22 23 23 24 25 25 26 27 27 28 28 28 28 28 29 30 30 30 30 30 31 32 32 32 32 33 33 33 34 34 35 35 35 35 35 36
20 20 21 22 23 23 24 25 26 26 27 27 28 29 29 29 30 30 29 29 30 30 31 31 32 32 32 32 33 34 34 34 34 35 36 36 36 37 37 37 37 37 37
23 23 24 25 26 26 27 27 28 29 30 30 31 32 31 31 31 30 31 31 31 31 32 32 33 33 33 34 35 36 37 36 36 37 37 38 38 38 39 39 39 38 38
25 26 27 28 29 29 30 30 31 32 33 33 33 33 32 32 32 32 33 33 33 34 34 35 36 35 35 36 37 39 39 39 39 39 40 40 40 40 40 40 40 40 40
27 27 28 29 31 33 33 33 33 34 34 34 35 34 34 34 34 34 35 35 35 36 37 37 38 38 38 38 39 41 41 42 42 42 42 42 42 42 42 42 42 42 42
28 28 29 30 32 34 34 34 34 34 35 35 35 35 35 35 35 36 37 37 37 38 39 39 39 40 41 42 42 43 44 45 44 44 44 45 44 44 44 44 44 44 44
29 29 30 32 34 35 35 35 36 35 35 35 36 36 35 35 37 38 39 39 40 41 41 42 42 43 44 45 45 45 46 47 48 48 48 48 48 47 47 47 46 46 45
29 30 32 33 33 34 35 35 36 36 36 37 37 37 37 37 38 39 40 41 42 43 44 45 45 46 46 47 48 49 49 50 51 51 51 50 50 50 50 49 48 47 46
30 31 31 32 33 34 35 35 36 35 36 36 36 37 37 38 40 41 42 43 44 45 46 48 48 49 49 50 51 52 53 53 54 53 52 53 53 52 51 50 49 48 47
31 31 32 33 33 33 32 32 32 33 34 35 36 37 39 41 42 43 44 45 46 47 49 50 51 52 54 55 55 56 57 57 56 56 55 55 54 53 52 51 50 48 47
Wind_Direction
200 199 198 201 205 210 211 212 215 212 216 221 224 225 222 225 227 229 226 235 268 295 314 327 331 328 326 323 317 313 313 311 309 304 300 295 289 285 281 278 277 273 269
193 197 201 202 206 208 208 212 211 210 214 214 215 210 206 208 214 214 214 231 265 295 319 326 325 330 328 326 322 319 316 313 310 306 302 299 295 290 285 281 278 276 273
196 193 196 200 204 205 206 205 206 205 201 202 201 196 197 203 208 206 213 229 258 291 314 320 323 326 327 325 323 319 316 313 311 308 304 301 297 293 289 285 281 277 275
200 196 197 197 200 200 199 198 199 199 201 193 190 193 200 203 203 205 214 228 250 278 307 317 320 322 325 325 322 320 318 316 314 312 309 306 302 298 294 290 286 281 277
202 198 200 199 195 193 195 197 197 199 197 194 192 196 199 198 199 205 216 232 248 269 294 308 315 319 325 325 323 319 317 318 316 314 311 308 304 300 297 294 291 286 282
215 188 185 188 191 193 195 196 197 196 194 192 192 197 200 200 204 210 223 237 250 267 284 301 312 318 321 323 323 321 318 317 316 316 313 310 307 304 300 297 294 291 287
212 197 184 183 188 192 194 197 197 195 193 197 199 203 205 207 209 217 228 241 258 275 285 295 306 313 317 318 320 319 319 317 316 316 315 312 310 308 304 302 299 295 291
226 193 187 188 187 188 193 198 196 194 197 199 204 207 211 215 220 229 240 252 264 274 282 290 299 306 310 311 314 316 315 315 315 314 314 313 311 309 306 304 301 299 295
226 208 200 195 197 197 199 200 200 199 203 207 210 213 219 224 231 241 250 259 266 273 280 287 294 301 304 306 309 312 312 313 314 313 312 312 311 309 307 305 303 301 297
230 218 210 205 204 202 204 206 206 210 213 216 220 225 230 236 243 252 258 262 266 271 281 286 291 296 300 304 306 308 309 310 312 312 311 311 311 310 308 307 305 303 300
241 231 225 221 218 218 219 219 221 224 225 227 230 235 240 247 253 257 262 264 267 273 279 285 290 294 298 301 304 306 307 308 309 310 310 310 311 310 309 309 307 304 301
248 240 233 231 232 232 231 231 232 233 234 237 241 246 252 256 260 263 265 268 271 275 280 285 289 292 295 298 300 303 304 306 308 308 309 310 310 309 308 308 307 305 303
254 252 248 243 240 240 239 239 239 241 244 247 251 254 258 261 264 267 270 271 274 278 282 286 288 291 293 296 298 301 303 305 306 306 308 308 308 308 307 307 307 306 304
258 259 259 256 252 249 248 248 248 251 253 255 257 259 262 266 268 270 272 273 276 279 283 286 288 290 292 294 297 299 301 302 304 304 306 307 307 307 306 306 306 305 304
261 261 262 261 259 258 256 255 255 257 259 260 261 263 266 268 270 273 273 275 277 280 284 286 289 290 292 293 295 297 299 300 301 302 303 305 306 305 305 305 304 304 304
262 262 263 263 263 261 260 259 260 261 263 264 266 267 268 270 272 273 274 276 279 282 285 287 290 291 291 292 294 295 298 299 300 301 302 303 304 304 304 304 303 303 303
263 264 264 263 264 265 265 263 263 264 265 267 269 270 270 272 274 275 276 279 281 283 285 287 290 291 291 293 294 295 297 299 300 300 301 302 303 303 303 303 302 303 303
262 264 265 265 266 268 269 268 266 267 268 268 270 270 270 271 273 275 277 280 281 284 287 289 289 291 291 293 294 294 296 297 299 299 300 301 302 302 301 302 302 302 301
259 263 264 266 266 268 269 269 268 268 268 269 270 273 272 272 274 275 277 279 282 284 286 289 291 291 291 291 292 294 295 296 298 299 299 300 300 300 301 301 302 301 300
260 260 262 265 266 268 268 268 267 268 268 269 270 273 273 273 273 275 277 280 282 283 285 288 290 290 290 291 292 294 295 295 297 298 298 298 298 299 299 300 300 300 299
262 262 263 264 266 266 267 267 267 267 268 269 270 272 275 275 275 276 278 280 282 284 286 288 289 290 291 292 293 294 294 295 295 296 296 296 296 297 297 298 299 298 297
264 264 266 267 267 267 267 267 267 267 268 270 272 273 274 274 277 279 280 282 283 286 287 288 290 290 291 292 292 293 294 295 295 295 294 295 295 296 296 296 297 297 296
267 266 268 268 268 266 265 266 266 267 269 270 272 271 273 274 277 280 281 282 284 286 287 288 289 291 291 292 292 292 293 294 294 294 294 294 294 295 295 295 295 295 294
269 270 269 269 268 267 267 268 268 269 270 271 272 273 275 277 279 281 282 284 286 286 287 289 290 290 291 291 291 292 292 292 292 292 293 293 293 294 294 294 293 293 293
271 272 272 271 270 271 270 269 269 269 273 274 275 277 278 280 282 283 284 285 286 287 288 289 289 290 291 291 291 292 291 291 291 291 291 292 292 293 292 292 292 292 292
272 272 272 272 271 273 271 270 271 274 275 278 279 281 282 283 283 283 284 285 286 287 287 288 289 290 290 291 291 291 291 290 290 290 290 290 291 291 291 290 290 290 290
Height
5846 5847 5850 5854 5857 5859 5862 5865 5867 5870 5872 5874 5876 5878 5879 5880 5881 5881 5881 5882 5882 5881 5881 5881 5880 5880 5880 5879 5878 5877 5877 5876 5875 5874 5874 5873 5872 5871 5871 5870 5870 5870 5869
5846 5847 5850 5852 5855 5857 5860 5863 5866 5868 5870 5872 5874 5876 5878 5879 5880 5880 5880 5880 5880 5880 5880 5880 5880 5879 5879 5878 5877 5876 5874 5874 5873 5872 5871 5870 5869 5868 5867 5866 5866 5865 5865
5846 5847 5849 5851 5854 5856 5859 5862 5864 5866 5869 5871 5873 5875 5876 5878 5878 5879 5879 5879 5879 5879 5879 5878 5878 5878 5877 5876 5875 5874 5873 5871 5870 5869 5868 5866 5865 5864 5863 5862 5861 5860 5860
5847 5847 5848 5850 5852 5855 5858 5860 5863 5866 5868 5870 5872 5874 5875 5876 5877 5877 5877 5878 5878 5878 5878 5877 5877 5876 5875 5874 5873 5872 5871 5869 5868 5866 5864 5863 5861 5860 5859 5858 5856 5855 5855
5846 5847 5847 5849 5851 5854 5856 5860 5862 5865 5867 5870 5871 5873 5874 5874 5875 5876 5876 5877 5877 5877 5876 5876 5875 5874 5873 5872 5871 5870 5868 5867 5865 5863 5861 5859 5857 5856 5854 5853 5851 5850 5849
5846 5846 5847 5848 5850 5853 5856 5859 5861 5864 5866 5868 5870 5871 5872 5873 5874 5874 5875 5875 5875 5875 5875 5874 5874 5873 5871 5870 5869 5867 5865 5864 5862 5860 5858 5856 5854 5851 5850 5848 5846 5844 5843
5847 5847 5847 5848 5850 5853 5855 5858 5861 5863 5865 5866 5868 5870 5871 5871 5872 5872 5873 5874 5873 5873 5873 5872 5871 5870 5869 5868 5866 5864 5862 5860 5858 5856 5854 5852 5849 5847 5845 5843 5840 5838 5837
5848 5848 5848 5849 5851 5853 5855 5857 5860 5862 5863 5865 5866 5868 5869 5869 5870 5871 5871 5872 5871 5871 5870 5870 5869 5867 5866 5864 5863 5861 5859 5857 5855 5852 5850 5847 5845 5842 5840 5837 5835 5833 5831
5849 5849 5849 5850 5851 5853 5855 5857 5859 5861 5862 5864 5865 5866 5867 5868 5868 5869 5869 5869 5869 5868 5868 5867 5865 5864 5862 5861 5859 5857 5855 5853 5850 5848 5845 5843 5840 5837 5835 5832 5829 5827 5825
5849 5849 5850 5851 5852 5853 5854 5856 5858 5860 5861 5862 5863 5864 5865 5865 5866 5866 5866 5866 5866 5865 5864 5863 5862 5860 5859 5857 5855 5852 5850 5848 5846 5843 5840 5837 5835 5832 5829 5826 5823 5821 5818
5849 5849 5850 5851 5852 5853 5854 5855 5857 5858 5859 5860 5861 5862 5862 5863 5863 5863 5863 5863 5862 5861 5860 5859 5858 5856 5854 5852 5850 5847 5845 5843 5840 5838 5835 5832 5829 5826 5823 5820 5818 5815 5812
5847 5848 5849 5850 5851 5852 5853 5854 5855 5856 5857 5858 5858 5859 5859 5859 5859 5859 5859 5858 5858 5857 5856 5854 5853 5851 5849 5847 5844 5842 5839 5837 5834 5832 5829 5826 5823 5820 5817 5814 5811 5808 5805
5846 5846 5847 5848 5849 5850 5851 5851 5852 5853 5854 5854 5855 5855 5855 5855 5855 5855 5854 5854 5853 5852 5851 5849 5847 5845 5843 5841 5838 5836 5833 5831 5828 5825 5822 5819 5816 5813 5810 5807 5803 5800 5797
5843 5843 5844 5845 5846 5846 5847 5848 5848 5849 5850 5850 5850 5851 5851 5851 5850 5850 5849 5848 5847 5846 5845 5843 5841 5839 5837 5834 5832 5829 5827 5824 5821 5818 5815 5812 5809 5806 5802 5799 5795 5792 5789
5839 5840 5840 5841 5842 5842 5843 5843 5844 5845 5845 5845 5845 5846 5845 5845 5845 5844 5843 5842 5841 5840 5838 5836 5834 5832 5830 5827 5825 5822 5819 5816 5814 5811 5807 5804 5801 5797 5794 5791 5787 5784 5780
5835 5836 5836 5837 5837 5838 5838 5839 5839 5839 5840 5840 5840 5840 5839 5839 5838 5838 5837 5836 5834 5833 5831 5829 5827 5825 5822 5820 5817 5814 5812 5809 5806 5802 5799 5796 5793 5789 5786 5782 5778 5775 5771
5831 5831 5831 5832 5833 5833 5833 5833 5834 5834 5834 5834 5833 5833 5833 5832 5831 5831 5830 5829 5827 5825 5823 5821 5819 5817 5814 5812 5809 5806 5803 5800 5797 5794 5791 5787 5784 5780 5776 5773 5769 5765 5761
5825 5826 5826 5826 5827 5827 5827 5827 5827 5827 5827 5827 5827 5826 5825 5825 5824 5823 5822 5821 5819 5817 5815 5813 5811 5808 5806 5803 5800 5797 5794 5791 5788 5785 5781 5778 5774 5770 5766 5763 5759 5755 5751
5820 5820 5820 5820 5820 5820 5820 5820 5820 5820 5820 5820 5819 5818 5817 5817 5816 5815 5813 5812 5810 5808 5806 5804 5802 5799 5796 5793 5790 5787 5784 5782 5779 5775 5772 5768 5764 5760 5756 5752 5749 5745 5741
5813 5813 5813 5813 5813 5813 5813 5813 5813 5812 5811 5811 5811 5810 5809 5808 5807 5805 5804 5802 5801 5799 5796 5794 5792 5789 5786 5783 5780 5776 5773 5771 5768 5765 5761 5757 5754 5750 5745 5741 5738 5734 5730
5806 5806 5806 5806 5806 5805 5805 5804 5804 5803 5802 5802 5801 5801 5799 5798 5797 5796 5794 5793 5791 5789 5786 5784 5781 5778 5776 5772 5769 5765 5762 5759 5756 5753 5749 5746 5742 5738 5734 5729 5726 5722 5718
5799 5798 5798 5798 5797 5796 5796 5795 5795 5794 5793 5793 5792 5791 5790 5789 5787 5786 5784 5782 5780 5778 5776 5773 5770 5768 5765 5761 5758 5754 5751 5747 5743 5740 5737 5734 5730 5725 5721 5717 5714 5709 5705
5791 5790 5790 5789 5788 5788 5786 5786 5785 5784 5783 5782 5782 5781 5780 5778 5777 5775 5773 5771 5769 5766 5764 5761 5758 5756 5752 5749 5745 5742 5738 5734 5730 5727 5724 5720 5716 5712 5708 5705 5700 5696 5693
5783 5782 5781 5780 5779 5778 5777 5777 5775 5774 5773 5772 5772 5770 5769 5768 5766 5764 5762 5760 5757 5755 5752 5749 5746 5743 5739 5735 5732 5728 5724 5720 5716 5713 5709 5705 5701 5697 5694 5690 5686 5683 5680
5774 5773 5772 5771 5770 5769 5768 5767 5766 5765 5764 5763 5762 5760 5758 5757 5755 5753 5750 5748 5745 5742 5739 5736 5732 5729 5726 5721 5717 5713 5709 5705 5701 5697 5694 5690 5686 5683 5679 5676 5672 5669 5666
5765 5764 5763 5762 5761 5759 5758 5757 5756 5756 5754 5753 5751 5750 5748 5746 5743 5741 5738 5735 5732 5728 5725 5721 5718 5714 5710 5706 5702 5697 5693 5689 5684 5680 5677 5674 5670 5667 5663 5660 5658 5655 5651